Temp
-6 -7 -7 -7 -7 -7 -7 -7 -7 -7 -7 -7 -7 -7 -7 -7 -7 -7 -7 -7 -7 -8 -8 -8 -8 -8 -8 -8 -9 -9 -9 -9 -10
-6 -7 -7 -7 -7 -7 -7 -7 -7 -7 -7 -7 -7 -7 -7 -7 -7 -7 -7 -8 -8 -8 -8 -8 -9 -9 -9 -9 -9 -9 -9 -10 -10
-7 -7 -7 -7 -7 -7 -7 -7 -7 -7 -7 -7 -7 -7 -7 -7 -7 -8 -8 -8 -8 -8 -9 -9 -9 -9 -9 -9 -9 -9 -10 -10 -10
-7 -7 -7 -7 -7 -7 -7 -7 -7 -7 -7 -8 -8 -8 -8 -8 -8 -8 -8 -8 -8 -9 -9 -9 -9 -9 -9 -10 -10 -10 -10 -11 -11
-7 -7 -7 -7 -7 -7 -7 -7 -7 -7 -7 -8 -8 -8 -8 -8 -8 -8 -8 -8 -9 -9 -9 -9 -9 -9 -9 -10 -11 -11 -11 -11 -11
-7 -7 -7 -7 -7 -7 -7 -7 -7 -7 -7 -8 -8 -8 -8 -8 -8 -8 -8 -9 -9 -9 -9 -10 -10 -10 -10 -10 -11 -11 -11 -11 -11
-7 -7 -7 -7 -7 -7 -7 -7 -7 -7 -7 -8 -8 -8 -8 -8 -8 -9 -9 -9 -9 -10 -10 -10 -10 -10 -10 -10 -11 -11 -11 -11 -11
-8 -8 -7 -7 -7 -7 -7 -7 -7 -7 -8 -8 -8 -8 -8 -8 -9 -9 -9 -9 -10 -10 -10 -10 -10 -11 -11 -10 -11 -12 -11 -11 -12
-8 -8 -8 -8 -8 -8 -8 -8 -8 -8 -8 -8 -8 -8 -8 -8 -9 -9 -9 -10 -10 -10 -10 -11 -11 -11 -11 -10 -11 -12 -11 -12 -12
-8 -8 -8 -8 -8 -8 -8 -8 -8 -8 -8 -8 -8 -8 -8 -8 -9 -9 -9 -10 -10 -11 -11 -11 -11 -12 -12 -12 -11 -12 -12 -12 -12
-8 -8 -8 -8 -8 -8 -8 -8 -8 -8 -8 -8 -8 -9 -9 -9 -9 -9 -9 -10 -11 -11 -11 -11 -12 -12 -12 -12 -12 -12 -12 -12 -12
-9 -8 -8 -9 -9 -9 -9 -9 -9 -9 -9 -9 -9 -9 -9 -9 -9 -9 -10 -10 -11 -11 -11 -11 -12 -12 -13 -13 -12 -12 -12 -13 -12
-9 -9 -9 -9 -9 -9 -9 -9 -9 -9 -9 -9 -9 -9 -10 -10 -10 -10 -10 -10 -11 -11 -11 -11 -12 -12 -13 -13 -13 -12 -12 -13 -12
-9 -9 -9 -9 -9 -9 -9 -9 -9 -9 -9 -9 -9 -10 -10 -10 -10 -10 -10 -10 -11 -11 -12 -12 -12 -12 -13 -13 -13 -13 -13 -13 -13
-9 -9 -9 -9 -9 -9 -9 -9 -9 -9 -10 -10 -10 -10 -10 -10 -10 -10 -10 -11 -11 -11 -12 -12 -12 -12 -12 -13 -13 -13 -13 -14 -13
-9 -9 -9 -9 -9 -9 -9 -9 -9 -10 -10 -10 -10 -10 -10 -10 -11 -11 -11 -11 -11 -12 -12 -12 -12 -12 -12 -13 -13 -13 -13 -13 -14
-10 -10 -10 -10 -9 -9 -9 -9 -9 -9 -9 -10 -10 -10 -10 -11 -11 -11 -11 -11 -11 -12 -12 -12 -12 -12 -12 -13 -13 -13 -14 -14 -14
-10 -10 -10 -10 -10 -9 -10 -10 -10 -10 -10 -10 -10 -11 -11 -11 -11 -11 -11 -11 -11 -12 -12 -12 -12 -13 -12 -13 -13 -13 -14 -14 -14
-10 -10 -10 -10 -10 -10 -10 -10 -10 -10 -10 -10 -11 -11 -11 -11 -11 -11 -12 -12 -12 -12 -12 -12 -13 -13 -13 -13 -13 -13 -13 -14 -14
-10 -10 -10 -10 -10 -10 -10 -10 -10 -10 -11 -11 -11 -11 -11 -11 -11 -11 -12 -12 -12 -12 -13 -13 -13 -13 -13 -13 -13 -13 -14 -14 -14
Height
5889 5891 5893 5894 5896 5898 5900 5902 5903 5905 5906 5906 5907 5908 5908 5908 5908 5908 5907 5906 5905 5905 5904 5904 5903 5903 5901 5899 5897 5896 5895 5893 5891
5887 5890 5892 5894 5895 5896 5898 5900 5902 5903 5904 5905 5906 5907 5907 5907 5907 5907 5906 5906 5906 5905 5905 5904 5904 5903 5901 5900 5897 5896 5896 5894 5892
5886 5888 5890 5892 5893 5894 5896 5898 5900 5902 5903 5904 5905 5906 5906 5906 5906 5906 5906 5906 5906 5905 5905 5904 5904 5903 5902 5900 5899 5897 5895 5894 5892
5884 5886 5888 5890 5891 5892 5894 5896 5898 5900 5901 5902 5903 5904 5904 5904 5905 5905 5905 5905 5906 5905 5904 5903 5903 5903 5902 5901 5899 5897 5896 5894 5891
5882 5883 5885 5887 5889 5890 5892 5894 5895 5897 5899 5899 5900 5901 5902 5902 5903 5903 5904 5904 5905 5904 5903 5903 5902 5902 5901 5901 5899 5897 5895 5894 5891
5879 5880 5883 5884 5886 5887 5889 5890 5892 5893 5895 5896 5897 5898 5899 5900 5901 5901 5902 5903 5904 5903 5903 5902 5902 5901 5900 5899 5898 5897 5895 5893 5891
5875 5877 5880 5881 5883 5884 5886 5887 5888 5890 5891 5893 5894 5895 5896 5897 5898 5899 5900 5901 5902 5902 5902 5901 5901 5900 5899 5898 5896 5894 5893 5892 5890
5871 5873 5876 5877 5879 5881 5882 5884 5885 5886 5888 5890 5891 5892 5893 5893 5894 5896 5897 5898 5899 5899 5900 5899 5899 5899 5897 5896 5895 5893 5893 5891 5888
5865 5868 5871 5872 5875 5877 5878 5880 5881 5883 5885 5886 5887 5888 5889 5890 5891 5892 5894 5894 5896 5897 5898 5897 5897 5897 5895 5894 5893 5892 5892 5889 5887
5859 5862 5865 5868 5871 5873 5874 5876 5877 5879 5881 5882 5883 5884 5885 5886 5887 5889 5890 5891 5892 5894 5894 5894 5894 5894 5893 5892 5891 5890 5890 5888 5886
5853 5856 5859 5863 5865 5868 5869 5871 5872 5874 5876 5877 5879 5880 5882 5883 5883 5885 5885 5886 5888 5889 5890 5891 5891 5891 5890 5888 5889 5888 5888 5886 5884
5847 5850 5853 5857 5860 5862 5864 5865 5867 5869 5870 5872 5874 5875 5877 5878 5879 5880 5881 5882 5882 5884 5886 5887 5887 5887 5887 5885 5884 5884 5884 5883 5882
5840 5842 5846 5850 5853 5855 5858 5860 5861 5863 5865 5866 5867 5869 5871 5873 5874 5875 5876 5876 5878 5879 5880 5882 5883 5883 5882 5881 5879 5880 5879 5879 5879
5833 5836 5839 5843 5846 5849 5851 5853 5855 5857 5859 5861 5861 5863 5865 5866 5868 5870 5870 5871 5872 5873 5875 5876 5877 5878 5876 5876 5876 5875 5875 5874 5874
5826 5829 5832 5836 5838 5841 5843 5846 5848 5850 5852 5854 5855 5856 5858 5860 5862 5863 5864 5865 5866 5867 5868 5870 5871 5872 5871 5871 5871 5870 5869 5869 5867
5818 5821 5825 5828 5830 5833 5836 5839 5841 5842 5844 5846 5847 5848 5850 5853 5854 5856 5857 5858 5859 5860 5861 5863 5864 5865 5865 5865 5865 5865 5864 5863 5863
5810 5814 5817 5820 5823 5826 5828 5831 5833 5834 5836 5837 5838 5841 5844 5845 5846 5848 5849 5850 5851 5852 5854 5855 5856 5857 5858 5858 5858 5858 5857 5856 5856
5802 5805 5809 5812 5815 5818 5820 5823 5824 5825 5827 5829 5831 5833 5836 5835 5838 5840 5841 5842 5843 5845 5845 5846 5848 5848 5848 5850 5850 5850 5850 5849 5847
5792 5796 5799 5803 5806 5809 5812 5814 5815 5817 5819 5820 5823 5825 5827 5827 5830 5831 5832 5833 5834 5835 5837 5838 5839 5840 5840 5841 5841 5841 5842 5841 5840
5782 5786 5790 5794 5798 5801 5803 5806 5807 5808 5811 5812 5814 5818 5819 5820 5821 5821 5823 5825 5826 5827 5828 5829 5831 5832 5832 5832 5832 5833 5833 5832 5832
Wind_Speed
16 16 15 15 15 14 12 11 9 6 3 1 2 4 3 2 2 3 4 3 4 6 5 6 7 11 12 14 13 12 12 12 13
17 17 16 15 15 14 13 11 9 7 5 3 3 3 4 3 2 1 3 1 3 3 4 4 6 11 11 13 13 12 13 14 14
15 18 18 17 17 16 15 13 11 9 7 6 5 4 4 4 3 3 3 1 2 2 2 1 4 12 11 11 11 12 12 14 15
13 16 19 19 19 18 17 15 13 11 10 9 8 7 6 6 5 4 4 2 3 2 3 2 3 11 10 10 12 12 13 13 14
16 15 16 19 20 19 18 17 15 14 13 12 10 9 8 8 7 5 5 4 6 5 6 5 3 5 8 12 14 14 15 13 14
21 19 16 15 16 18 19 18 17 16 15 14 12 11 10 9 8 7 6 6 8 8 9 7 5 2 6 11 15 14 13 14 16
23 22 21 19 18 17 17 17 18 18 17 16 14 13 12 10 9 8 7 8 10 10 11 9 6 4 6 10 13 10 13 16 17
26 24 23 24 23 22 21 20 20 20 18 16 15 15 14 12 11 9 8 9 12 13 13 11 9 8 7 10 13 11 12 13 14
29 28 27 27 25 25 24 23 22 20 19 18 17 17 16 15 13 11 10 12 15 15 15 14 12 10 10 12 9 11 12 13 14
33 31 30 28 26 25 24 23 23 23 22 21 20 19 18 17 16 14 13 14 18 17 18 17 15 13 13 14 13 15 11 12 12
35 34 33 30 28 27 26 26 26 25 24 23 21 20 20 19 20 18 16 17 20 20 21 20 18 16 17 18 16 16 10 14 14
37 36 35 32 31 30 30 28 27 26 25 25 25 24 23 22 22 21 20 19 22 24 24 24 23 21 19 19 20 19 11 15 12
38 37 36 33 32 31 30 30 29 28 28 28 29 28 26 25 24 24 23 23 24 27 28 28 27 26 26 25 24 22 23 17 15
40 38 36 33 32 32 31 31 30 30 30 31 32 31 30 28 27 25 25 26 26 28 32 32 31 30 31 31 27 27 22 24 19
39 37 36 34 35 35 34 34 34 33 34 33 33 33 32 31 30 28 27 28 29 30 34 35 35 35 35 34 33 28 24 24 24
39 39 38 37 36 36 34 34 34 33 33 34 35 35 34 32 32 31 31 30 31 32 34 38 38 38 38 37 36 32 34 35 29
40 39 38 37 36 35 35 35 35 35 37 36 38 36 34 34 33 33 34 34 34 34 35 38 41 42 41 40 39 36 36 35 34
39 39 39 38 38 37 36 36 37 37 37 35 36 34 33 35 34 34 36 36 37 37 38 39 41 44 45 43 42 42 43 44 40
43 42 41 40 39 38 38 38 38 37 33 32 32 31 33 34 34 35 37 38 38 40 39 40 42 43 46 46 45 46 48 49 48
43 42 41 40 39 40 39 37 36 35 34 34 35 35 35 35 35 38 37 37 39 41 41 41 40 41 44 47 48 47 48 51 51
Wind_Direction
185 179 177 180 177 182 184 181 179 179 167 90 13 18 13 17 47 25 26 73 103 96 72 57 40 19 7 12 12 17 19 23 23
189 186 186 188 190 192 194 198 201 202 211 244 297 343 346 327 333 329 2 66 117 104 67 53 31 17 7 8 8 14 12 17 25
195 192 193 195 199 203 208 211 215 220 232 247 270 289 312 310 314 294 328 287 151 103 84 48 24 8 3 4 13 18 19 18 9
194 197 201 203 208 211 216 221 224 229 243 254 263 272 286 303 299 293 286 270 193 193 185 231 335 0 2 5 9 8 14 5 11
203 201 201 208 215 220 225 230 233 235 238 248 258 267 279 291 291 289 277 256 213 218 218 248 292 348 6 358 360 357 357 6 4
213 213 210 208 216 222 227 231 235 240 245 247 254 264 274 283 286 284 268 251 225 233 232 244 261 324 348 346 349 360 0 3 1
220 219 219 219 220 222 227 232 237 241 246 251 255 258 262 267 274 277 268 247 231 238 239 242 238 278 314 346 348 359 349 352 355
225 224 222 222 222 224 228 232 239 244 248 253 256 259 262 263 268 271 266 244 233 237 238 238 234 246 278 323 342 351 351 353 2
228 227 226 228 227 228 230 234 238 243 247 251 253 255 258 260 261 263 257 245 233 236 238 240 234 238 258 286 334 342 341 349 360
230 231 231 232 235 237 239 241 243 244 245 248 251 255 260 263 264 261 255 245 234 231 234 235 231 235 254 279 300 343 328 335 345
233 233 235 235 237 239 239 241 242 246 248 251 254 257 260 264 266 261 253 245 236 231 233 233 233 233 249 267 287 309 333 311 325
237 237 238 238 238 240 241 242 244 245 249 253 255 256 258 261 263 264 258 249 238 231 234 234 235 238 240 252 266 286 299 295 310
237 238 238 238 240 240 242 244 245 248 250 254 257 256 256 258 260 262 261 253 244 236 235 237 236 238 241 250 258 276 296 303 296
236 238 239 237 237 239 241 244 247 251 253 254 257 259 258 257 257 259 260 259 250 244 237 239 239 241 245 252 256 270 280 293 287
232 234 236 237 239 242 245 248 251 252 253 255 257 258 259 257 257 256 257 258 256 246 242 241 244 244 247 252 255 261 266 272 284
232 234 237 240 242 245 248 250 252 254 256 258 258 258 259 261 258 257 257 257 256 252 247 244 244 247 249 253 253 255 264 273 271
234 235 237 239 242 245 247 250 254 257 259 259 259 259 260 259 258 256 256 255 257 256 252 250 247 247 250 254 253 255 262 268 269
236 237 238 240 243 246 249 254 258 259 259 259 259 259 258 259 260 260 259 259 259 258 257 255 251 250 251 252 254 253 260 265 270
236 239 240 242 244 247 252 255 257 258 256 255 254 254 255 259 260 260 261 260 260 261 259 258 256 255 255 256 256 254 258 265 266
238 239 242 245 248 251 254 255 255 255 254 255 257 258 259 260 262 262 260 260 263 264 265 264 262 260 258 259 259 259 258 263 267